Belmar-Farmingdale, NJ

7:48 AM EST on November 15, 2019 (GMT -0500)
Allaire

Weather History for KBLM - August, 2019

Change the Weather History Date:

Thursday, August 22, 2019

  Actual Average Record
Temperature  
Mean Temperature 81 °F -  
Max Temperature 91 °F 78 °F 93 °F (2003)
Min Temperature 72 °F 63 °F 55 °F (2004)
Cooling Degree Days 16    
Growing Degree Days 31 (Base 50)    
Moisture  
Dew Point 71 °F    
Average Humidity 78    
Maximum Humidity 100    
Minimum Humidity 50    
Precipitation  
Precipitation 0.01 in - - ()
Sea Level Pressure  
Sea Level Pressure 29.89 in    
Wind  
Wind Speed 6 mph ()    
Max Wind Speed 13 mph    
Max Gust Speed -    
Visibility 8.9 miles    
Events Rain    
Averages and records for this station are not official NWS values.
T = Trace of Precipitation, MM = Missing Value Source: Averaged Metar Reports

Daily Weather History Graph

Daily Weather History Graph

Search for Another Location

Airport or City:

Astronomy

Aug. 22, 2019 Rise Set
Actual Time 6:14 AM EDT 7:43 PM EDT
Civil Twilight 5:45 AM EDT 8:12 PM EDT
Nautical Twilight 5:11 AM EDT 8:46 PM EDT
Astronomical Twilight 4:34 AM EDT 9:22 PM EDT
Moon 11:31 PM EDT (8/22) 12:47 PM EDT (8/22)
Length of Visible Light 14h 26m
Length of Day
13h 29m
Waning Gibbous, 60% of the Moon is Illuminated
Aug 22
Waning Gibbous
Aug 23
Last Quarter
Aug 30
New
Sep 5
First Quarter
Sep 14
Full

Hourly Weather History & Observations

Time (EDT) Temp. Heat Index Dew Point Humidity Pressure Visibility Wind Dir Wind Speed Gust Speed Precip Events Conditions
12:56 AM 75.0 °F - 73.0 °F 94% 29.88 in 10.0 mi SSW 6.9 mph - N/A   Clear
1:56 AM 73.9 °F - 73.0 °F 97% 29.88 in 10.0 mi SW 4.6 mph - N/A   Mostly Cloudy
2:56 AM 73.0 °F - 72.0 °F 96% 29.87 in 10.0 mi WSW 4.6 mph - N/A   Clear
3:56 AM 73.0 °F - 72.0 °F 96% 29.86 in 10.0 mi SW 5.8 mph - N/A   Clear
4:56 AM 72.0 °F - 72.0 °F 100% 29.85 in 10.0 mi WSW 4.6 mph - N/A   Partly Cloudy
5:10 AM 73.4 °F - 71.6 °F 94% 29.86 in 4.0 mi WSW 5.8 mph - N/A   Mostly Cloudy
5:23 AM 73.4 °F - 71.6 °F 94% 29.86 in 2.5 mi SSW 5.8 mph - N/A   Overcast
5:39 AM 73.4 °F - 71.6 °F 94% 29.87 in 3.0 mi SSW 5.8 mph - N/A   Overcast
5:56 AM 73.0 °F - 72.0 °F 96% 29.87 in 4.0 mi WSW 5.8 mph - N/A   Overcast
6:56 AM 73.0 °F - 72.0 °F 96% 29.89 in 7.0 mi WSW 4.6 mph - N/A   Mostly Cloudy
7:20 AM 73.4 °F - 71.6 °F 94% 29.90 in 8.0 mi WSW 4.6 mph - N/A   Scattered Clouds
7:56 AM 75.0 °F - 73.0 °F 94% 29.90 in 10.0 mi West 6.9 mph - N/A   Clear
8:56 AM 79.0 °F - 72.0 °F 79% 29.91 in 10.0 mi West 11.5 mph - N/A   Clear
9:56 AM 82.0 °F 86.3 °F 71.1 °F 69% 29.91 in 10.0 mi WNW 12.7 mph - N/A   Clear
10:56 AM 82.0 °F 86.3 °F 71.1 °F 69% 29.92 in 10.0 mi West 9.2 mph - N/A   Clear
11:56 AM 84.9 °F 90.1 °F 71.1 °F 63% 29.91 in 10.0 mi West 9.2 mph - N/A   Clear
12:56 PM 86.0 °F 90.7 °F 70.0 °F 59% 29.90 in 10.0 mi SW 9.2 mph - N/A   Clear
1:56 PM 89.1 °F 93.7 °F 69.1 °F 52% 29.91 in 10.0 mi West 12.7 mph - N/A   Clear
2:56 PM 90.0 °F 95.4 °F 70.0 °F 52% 29.90 in 10.0 mi WSW 9.2 mph - N/A   Clear
3:56 PM 90.0 °F 94.5 °F 69.1 °F 50% 29.88 in 10.0 mi WSW 5.8 mph - N/A   Partly Cloudy
4:56 PM 90.0 °F 94.5 °F 69.1 °F 50% 29.86 in 10.0 mi WSW 8.1 mph - N/A   Clear
5:56 PM 89.1 °F 93.7 °F 69.1 °F 52% 29.85 in 10.0 mi SSW 5.8 mph - N/A   Clear
6:56 PM 88.0 °F 92.9 °F 70.0 °F 55% 29.87 in 10.0 mi WSW 4.6 mph - N/A   Clear
7:56 PM 84.0 °F 88.4 °F 70.0 °F 63% 29.87 in 10.0 mi SSW 5.8 mph - N/A   Clear
8:56 PM 82.0 °F 86.7 °F 72.0 °F 71% 29.90 in 10.0 mi SSW 8.1 mph - N/A   Clear
9:56 PM 82.0 °F 86.7 °F 72.0 °F 71% 29.91 in 10.0 mi SSW 6.9 mph - N/A   Clear
10:56 PM 75.0 °F - 70.0 °F 84% 29.94 in 10.0 mi North 5.8 mph - 0.00 in   Mostly Cloudy
11:56 PM 73.9 °F - 70.0 °F 87% 29.94 in 10.0 mi Calm Calm - 0.01 in Rain Light Rain